STARLINK-5692 (55483 NORAD) Tracking and Keplerian Element Data

This shows tracking and keplerian element data for the satellite.

Feedback or suggestion? Click here.




ElementValue
Catalog55483
NameSTARLINK-5692
Epoch Orbit130
Epoch Day84.91667824
Epoch Year2023
RAAN86.3824
Inclination43.0002
Eccentricity0.0001175
Argument of Perigee250.5824
Mean Anonmoly176.3428
Mean Motion15.04475596
Decay Rate0.00035606
L11 55483U 23015AL 23084.91667824 .00035606 00000+0 25049-2 0 9997
L22 55483 43.0002 86.3824 0001175 250.5824 176.3428 15.04475596 1308



Live tracking and technical data element details for STARLINK-5692 (NORAD 55483). STARLINK-5692 can be tracked NOW for your location showing map with azimuth and elevation plus other details from your city location.







IsCatalogInMostPopularTable: catalog: 55483, numindb: -1

Insert: records affected: 1


GetName: 55483 STARLINK-5692

Hit Count: inserted at: Tue, 28 Mar 2023 02:41:46 GMT